Wind_Speed
37 40 41 44 47 50 51 54 56 58 62 65 67 69 70 70 67 35 50 45 57 64 73 71 64 64 60 67 70 73 69 74 79 86 91 84 84 74 63 47 35 26 25
40 43 45 48 50 53 56 59 61 64 65 67 71 74 74 73 40 48 65 59 65 65 63 59 61 60 65 68 70 71 75 80 81 90 84 84 73 65 48 33 26 19 16
44 46 50 52 55 58 60 63 65 67 70 74 77 77 76 57 55 67 72 71 62 61 58 54 61 65 69 69 63 73 77 78 90 87 85 75 69 50 34 23 14 7 9
48 52 54 57 59 61 65 69 71 74 75 78 80 78 70 56 66 66 66 59 65 59 55 65 69 67 64 65 67 72 72 83 93 84 83 71 55 34 18 6 5 1 4
55 57 60 62 64 66 69 73 76 78 79 75 70 64 57 64 64 65 63 64 61 56 64 64 58 62 63 63 73 73 77 90 95 83 77 66 36 18 7 5 6 4 9
58 61 63 66 69 73 73 76 76 74 71 63 61 62 66 66 63 60 61 59 56 52 58 63 67 60 65 73 80 82 84 90 80 82 72 48 21 10 7 8 8 8 6
61 63 67 71 72 75 74 71 65 61 59 61 62 62 65 66 63 66 66 68 61 55 57 63 55 67 71 79 86 89 90 87 77 76 68 31 13 8 7 10 12 11 10
63 67 69 71 71 69 62 58 57 60 60 61 60 62 65 59 57 62 64 51 48 51 57 61 66 74 78 82 86 90 89 82 77 70 50 20 12 7 5 2 7 13 14
65 67 67 64 58 52 52 55 55 56 56 57 57 55 59 58 54 54 51 51 50 53 58 60 71 71 78 82 86 89 85 79 76 65 37 16 10 4 6 2 9 16 22
63 61 52 44 42 42 44 46 53 55 56 56 53 54 51 48 48 51 49 54 54 61 66 70 73 77 80 84 81 82 83 81 71 61 25 12 13 8 7 8 10 16 22
49 37 33 34 35 39 44 48 49 55 55 54 50 48 47 45 49 52 51 53 56 60 65 66 68 67 70 75 80 79 83 76 67 48 16 18 19 12 13 7 7 11 12
32 33 34 35 38 43 44 48 52 56 59 59 59 54 50 49 51 56 55 61 60 62 62 62 66 71 73 75 81 83 78 72 60 33 14 21 21 17 16 8 5 6 7
30 31 35 37 41 45 47 50 53 56 58 60 61 55 52 53 55 58 57 60 61 63 63 65 69 72 75 82 82 83 76 67 47 25 14 25 26 20 22 14 6 1 7
32 34 36 39 42 46 49 53 54 56 57 57 63 61 56 56 57 60 61 61 62 65 68 69 72 75 79 84 83 80 72 56 35 21 15 29 29 25 21 20 14 7 7
36 37 40 44 47 50 53 56 57 59 59 56 63 62 57 58 57 60 63 63 65 67 67 73 75 80 80 81 83 72 61 43 31 17 16 26 34 26 25 22 17 15 13
41 44 46 48 50 52 55 56 59 62 61 55 60 63 61 61 60 63 68 64 62 66 69 75 82 78 80 84 73 63 48 35 24 14 17 22 38 37 31 26 23 20 18
46 47 48 51 53 55 57 57 60 62 63 57 60 63 63 65 65 67 73 67 65 68 76 86 79 76 82 77 65 51 40 30 22 14 16 21 33 39 39 35 28 26 25
50 51 52 55 55 58 60 60 62 63 64 60 63 65 65 66 67 68 74 71 70 69 81 83 73 79 82 68 56 42 33 27 22 18 17 19 28 39 40 39 37 33 31
53 53 55 56 56 60 62 63 64 64 64 62 65 67 65 64 69 71 75 72 73 79 85 78 77 82 72 64 44 34 28 25 22 22 21 24 24 31 41 43 41 39 36
54 56 58 60 62 63 65 64 65 65 65 63 68 67 67 68 68 72 72 72 80 86 79 77 78 71 67 50 36 30 27 23 21 21 22 22 27 28 34 40 43 43 44
58 60 62 64 65 65 64 66 67 64 66 68 68 68 69 68 68 69 70 78 84 81 79 81 69 65 55 41 32 28 25 21 21 23 22 21 23 34 32 37 44 44 44
60 63 64 65 63 64 65 65 64 66 69 71 70 72 71 68 70 67 77 81 75 78 84 73 63 57 46 37 31 28 27 25 24 20 19 22 25 25 35 39 39 44 48
59 62 64 65 64 65 64 65 65 71 72 71 75 72 69 72 71 77 80 75 80 83 81 66 61 50 40 33 29 28 27 25 26 27 26 27 27 27 27 31 43 43 44
64 65 66 65 66 65 64 66 69 73 71 73 70 68 69 71 75 80 73 78 88 82 71 60 54 43 36 32 30 28 28 28 27 27 27 26 26 28 31 31 30 40 48
70 69 66 63 63 65 69 70 73 74 76 70 69 67 70 72 79 79 77 86 81 65 59 55 46 38 33 31 33 34 33 31 30 30 30 30 30 30 31 30 32 33 33
65 61 60 64 65 68 71 73 76 78 73 72 68 70 71 77 78 81 86 74 66 57 56 54 43 36 34 35 36 33 28 26 26 24 22 20 19 19 18 22 25 27 31
Wind_Direction
307 310 313 314 315 316 316 317 318 319 318 318 317 318 322 323 330 311 298 296 289 299 304 307 309 310 311 314 314 323 324 320 320 325 326 325 323 321 315 311 304 286 273
307 309 311 310 310 311 313 315 316 315 314 313 313 316 318 322 330 299 302 302 298 303 308 313 316 313 312 314 316 323 319 319 325 330 328 325 325 320 317 317 299 283 267
305 306 305 306 307 309 311 311 311 312 312 312 312 314 315 327 293 301 305 310 312 309 309 320 319 313 310 314 323 319 321 319 327 329 329 327 328 322 322 315 295 279 263
298 301 301 303 305 309 309 310 311 310 311 311 312 312 314 304 306 309 312 311 314 316 320 317 314 313 314 316 315 322 325 327 328 330 332 330 326 322 315 290 263 344 277
299 299 300 304 306 307 309 309 310 311 311 312 313 315 314 313 315 313 309 315 319 323 315 314 312 313 315 320 324 324 326 327 329 333 331 331 326 315 297 219 237 241 284
295 300 304 304 306 307 307 309 310 309 313 313 312 309 310 313 314 315 322 319 316 312 313 308 310 314 318 322 325 325 324 325 330 335 334 331 326 300 233 247 271 330 304
299 301 301 303 304 306 309 308 310 313 315 314 312 309 311 314 317 316 318 312 312 309 302 307 318 323 319 319 321 320 322 327 333 337 336 326 299 287 248 259 262 302 294
295 297 299 301 304 306 308 309 316 317 316 312 313 311 310 313 315 311 316 311 302 301 309 313 323 319 317 317 321 322 324 330 336 339 335 308 274 289 294 277 290 294 295
294 296 297 301 303 305 310 320 322 320 318 316 315 312 313 313 308 306 305 302 304 306 314 318 316 315 315 320 321 322 325 331 335 337 328 283 243 265 313 260 292 312 329
293 295 299 301 304 312 323 327 328 331 328 326 321 318 320 318 324 307 310 301 303 308 314 316 315 316 319 319 322 324 327 330 334 335 313 264 198 231 234 259 310 329 337
295 295 299 304 311 319 325 327 331 334 337 336 332 331 333 325 324 315 311 315 318 320 319 319 322 324 323 323 328 328 329 330 332 331 283 228 208 214 220 245 320 332 350
290 299 306 308 311 317 321 327 328 333 337 348 344 338 332 320 322 321 319 320 322 324 324 325 323 324 325 327 331 329 329 327 330 323 265 227 222 222 204 209 231 331 154
292 298 306 308 313 316 319 325 329 333 336 343 347 338 333 331 328 326 324 325 326 327 326 324 325 328 329 331 329 328 327 328 327 316 277 212 222 221 223 206 234 3 189
294 301 304 308 314 320 322 323 326 330 333 335 344 345 338 332 327 325 325 324 323 323 322 324 326 328 329 329 328 329 327 327 323 309 268 208 214 220 217 215 218 222 187
292 298 301 306 311 315 318 322 324 328 329 333 337 343 340 334 331 328 325 323 324 324 324 329 329 328 329 328 329 328 327 325 322 300 254 216 206 218 222 212 205 220 218
291 295 299 303 307 312 316 317 320 324 327 329 334 336 338 334 330 334 337 328 326 328 332 332 329 329 329 329 328 328 326 326 321 291 246 228 215 220 219 221 211 216 226
289 292 297 303 307 308 312 314 318 322 327 326 330 332 326 328 327 328 332 334 330 331 334 334 330 328 327 328 328 326 325 326 318 286 242 242 222 223 225 224 224 228 234
289 291 294 300 304 308 311 314 316 319 324 324 327 332 327 319 324 326 329 329 326 325 329 332 327 327 327 327 326 323 322 319 307 287 252 240 229 224 230 228 227 232 237
289 291 294 298 302 306 309 310 314 315 322 322 323 328 326 320 323 325 325 325 324 327 330 328 326 325 326 327 323 321 318 309 292 279 268 240 237 232 230 234 235 231 238
288 291 292 297 300 305 307 308 311 315 319 323 324 327 325 320 322 324 321 320 325 328 328 327 326 326 327 325 323 321 315 301 289 283 273 264 236 236 235 235 238 238 238
286 290 294 296 299 302 305 307 310 313 315 321 325 324 324 320 321 322 319 322 326 326 327 329 327 328 326 324 323 316 305 290 285 280 274 274 259 242 237 237 238 241 242
288 289 291 294 298 300 303 305 308 313 316 321 323 323 323 319 321 317 320 323 327 331 331 329 330 328 325 323 319 312 301 291 286 287 289 284 275 266 246 239 239 240 242
286 287 290 294 297 300 302 306 309 312 317 319 322 321 319 318 317 319 323 329 329 327 330 330 329 327 325 321 315 309 301 294 287 284 285 286 279 274 267 256 242 240 242
284 285 289 294 295 298 302 305 308 312 316 320 320 319 317 316 317 325 326 327 329 330 328 329 328 327 326 321 316 308 302 301 298 296 295 290 284 276 270 265 260 249 245
285 286 290 292 294 297 301 305 308 311 316 320 319 316 313 312 322 324 323 326 332 331 328 329 326 326 323 320 318 314 307 303 299 296 293 291 287 283 277 271 264 262 260
282 283 287 289 292 297 301 305 308 312 315 313 315 311 312 320 323 324 328 331 334 334 330 330 323 322 323 322 323 323 317 311 305 302 300 299 299 298 292 278 269 268 265
Height
10982 10980 10978 10974 10969 10965 10961 10957 10953 10948 10939 10930 10922 10918 10916 10912 10913 10908 10893 10885 10869 10857 10846 10833 10819 10807 10798 10788 10777 10769 10758 10748 10736 10717 10700 10682 10667 10653 10637 10625 10623 10620 10618
10977 10973 10970 10966 10962 10958 10953 10947 10943 10937 10931 10923 10914 10909 10905 10904 10900 10887 10874 10863 10856 10842 10829 10817 10805 10794 10786 10776 10765 10757 10745 10732 10722 10705 10686 10668 10652 10635 10626 10618 10613 10611 10611
10969 10965 10961 10958 10954 10950 10945 10939 10934 10928 10919 10910 10901 10895 10892 10893 10879 10870 10855 10843 10832 10823 10814 10803 10793 10785 10776 10767 10758 10746 10732 10717 10704 10689 10671 10653 10639 10627 10617 10613 10610 10608 10607
10961 10958 10953 10949 10945 10940 10933 10925 10920 10915 10908 10897 10886 10877 10873 10870 10862 10849 10836 10826 10818 10809 10798 10790 10781 10772 10764 10756 10746 10735 10721 10706 10690 10672 10653 10639 10627 10619 10614 10611 10608 10604 10605
10951 10947 10943 10938 10933 10928 10923 10915 10908 10899 10889 10883 10873 10865 10856 10848 10844 10834 10825 10815 10805 10795 10787 10777 10768 10760 10753 10743 10733 10722 10709 10695 10679 10660 10643 10628 10618 10613 10612 10611 10608 10605 10606
10942 10937 10930 10925 10921 10915 10910 10902 10895 10884 10875 10868 10862 10852 10843 10836 10829 10820 10809 10803 10793 10784 10775 10764 10757 10748 10740 10729 10720 10708 10698 10688 10671 10653 10636 10620 10614 10612 10612 10610 10609 10608 10607
10932 10926 10920 10915 10909 10902 10896 10888 10880 10873 10865 10857 10850 10838 10830 10822 10813 10807 10800 10791 10781 10774 10764 10756 10747 10737 10727 10717 10706 10695 10683 10670 10657 10646 10627 10616 10613 10612 10611 10610 10609 10607 10606
10924 10918 10911 10904 10898 10892 10884 10877 10871 10863 10854 10845 10837 10827 10818 10810 10804 10795 10787 10781 10772 10763 10757 10748 10737 10727 10716 10704 10691 10677 10665 10653 10641 10629 10621 10614 10612 10612 10611 10610 10609 10606 10603
10914 10908 10902 10897 10890 10883 10878 10872 10865 10853 10845 10836 10826 10816 10808 10801 10795 10788 10780 10773 10762 10756 10747 10736 10725 10715 10703 10692 10679 10665 10652 10639 10632 10622 10612 10610 10611 10611 10610 10609 10607 10604 10600
10900 10897 10891 10886 10880 10874 10870 10863 10857 10845 10835 10823 10814 10807 10799 10791 10784 10778 10771 10763 10754 10747 10738 10726 10715 10702 10690 10680 10667 10653 10639 10628 10617 10611 10604 10606 10608 10609 10608 10607 10605 10602 10597
10886 10883 10881 10876 10871 10865 10860 10855 10847 10839 10829 10817 10807 10798 10789 10783 10779 10772 10764 10757 10745 10736 10725 10714 10703 10691 10679 10669 10655 10640 10626 10615 10606 10599 10596 10600 10604 10604 10606 10606 10603 10601 10597
10874 10872 10869 10866 10861 10856 10852 10846 10838 10830 10820 10810 10799 10789 10784 10779 10772 10763 10753 10745 10734 10724 10714 10703 10693 10682 10668 10656 10642 10628 10616 10605 10596 10590 10589 10593 10597 10600 10602 10602 10601 10601 10599
10865 10863 10860 10856 10853 10848 10842 10836 10828 10820 10812 10802 10793 10784 10777 10769 10761 10753 10743 10733 10723 10713 10704 10694 10681 10669 10656 10644 10631 10617 10603 10593 10586 10581 10582 10586 10590 10594 10598 10598 10599 10599 10600
10854 10853 10850 10847 10843 10837 10832 10826 10820 10813 10805 10797 10788 10777 10768 10761 10753 10744 10734 10724 10713 10704 10694 10682 10670 10657 10644 10631 10617 10601 10588 10580 10576 10573 10574 10579 10584 10589 10593 10595 10595 10597 10598
10846 10844 10840 10837 10832 10827 10822 10816 10810 10803 10797 10789 10778 10769 10761 10753 10744 10734 10724 10713 10704 10693 10682 10670 10656 10645 10630 10614 10602 10589 10578 10570 10566 10565 10567 10572 10578 10582 10587 10590 10591 10592 10593
10837 10834 10831 10827 10822 10817 10811 10807 10802 10795 10787 10780 10770 10761 10752 10743 10733 10722 10712 10701 10692 10681 10669 10657 10643 10628 10616 10603 10589 10579 10569 10563 10560 10560 10562 10565 10571 10576 10580 10584 10586 10587 10589
10826 10824 10820 10817 10812 10807 10802 10796 10790 10783 10776 10769 10761 10752 10742 10732 10721 10710 10700 10687 10677 10667 10655 10643 10629 10616 10604 10592 10580 10570 10564 10558 10556 10556 10558 10560 10564 10568 10572 10576 10580 10582 10584
10815 10813 10810 10807 10801 10795 10789 10784 10779 10774 10767 10759 10751 10741 10732 10722 10712 10700 10689 10677 10665 10654 10644 10632 10619 10606 10594 10582 10571 10562 10558 10554 10552 10552 10553 10554 10557 10561 10565 10568 10572 10576 10578
10804 10801 10798 10794 10790 10785 10779 10773 10768 10762 10756 10747 10739 10730 10720 10710 10700 10690 10678 10666 10653 10643 10633 10620 10608 10594 10580 10570 10561 10554 10551 10548 10546 10546 10546 10547 10550 10553 10555 10558 10562 10566 10569
10793 10789 10785 10780 10775 10771 10766 10760 10755 10751 10745 10737 10727 10716 10706 10697 10688 10680 10668 10656 10642 10630 10619 10606 10594 10580 10569 10559 10552 10547 10544 10543 10541 10540 10539 10539 10542 10544 10547 10549 10551 10554 10559
10778 10775 10771 10767 10762 10757 10754 10748 10742 10738 10731 10723 10713 10704 10693 10684 10677 10670 10658 10645 10631 10618 10606 10593 10579 10569 10559 10550 10545 10541 10538 10536 10534 10533 10532 10532 10533 10535 10537 10539 10541 10543 10547
10764 10760 10756 10754 10751 10744 10741 10736 10728 10723 10717 10710 10700 10690 10680 10671 10664 10656 10646 10634 10621 10607 10594 10580 10568 10558 10549 10543 10538 10535 10532 10530 10529 10527 10526 10525 10524 10524 10525 10528 10529 10532 10535
10748 10744 10741 10738 10735 10730 10724 10719 10712 10707 10705 10696 10687 10677 10666 10659 10651 10642 10631 10619 10606 10593 10579 10568 10558 10548 10541 10536 10532 10529 10526 10524 10522 10520 10518 10516 10515 10515 10514 10515 10517 10519 10523
10730 10729 10728 10725 10720 10716 10711 10705 10698 10692 10689 10682 10672 10665 10656 10647 10638 10628 10616 10605 10592 10578 10565 10557 10548 10540 10534 10530 10526 10523 10519 10516 10513 10510 10508 10506 10506 10505 10504 10504 10504 10506 10508
10711 10712 10710 10709 10705 10701 10697 10690 10683 10676 10673 10667 10658 10650 10642 10634 10625 10612 10601 10591 10579 10566 10555 10548 10540 10534 10529 10525 10521 10516 10511 10507 10503 10501 10499 10497 10495 10494 10493 10493 10495 10495 10497
10698 10696 10695 10693 10691 10686 10680 10675 10669 10663 10656 10651 10645 10636 10628 10622 10611 10599 10588 10574 10568 10558 10548 10540 10533 10528 10523 10519 10513 10507 10502 10498 10494 10492 10490 10489 10487 10485 10484 10483 10484 10485 10486